User: anonymous   Login
Location: Caltech
(34.1382°N, 118.1253°W)
Time: 05:23:14
(UTC-07:00)
Language:

BREEZE M DEB (TANK) - Orbit

View from above orbital plane
View from above orbital plane
View from above satellite
View from above satellite

Ground track
Ground track

The orbit data is extracted from the following two-line orbital elements,

1 33437U 08057B   15245.34854078 +.00001353 +00000-0 +27359-3 0  9997
2 33437 049.5671 084.7961 5015254 320.8876 030.9903 05.58124955137251
Epoch (UTC): 02 September 2015 08:21:53
Eccentricity: 0.5015254
inclination: 49.5671°
perigee height: 314 km
apogee height: 13780 km
right ascension of ascending node: 84.7961°
argument of perigee: 320.8876°
revolutions per day: 5.58124955
mean anomaly at epoch: 30.9903°
orbit number at epoch: 13725

The dashed part of the orbit path shows where the satellite is in the earth's shadow,  

DLR